,,Stat5,,Stat1,,Stat2,,Stat3,,Stat4,,Wind1,,Wind1,
time,status,PA1M_AVG,status,PR1M_SUM,status,RH1M_AVG,status,SR1M_AVG,status,TA1M_AVG,status,W1dAve1m,status,W1sAve1m,
2003-05-24, 00:00:00,VALID,918.878,VALID,0,VALID,99.9112,VALID,0.0679233,VALID,17.8975,VALID,117,VALID,0.799609,
2003-05-24, 00:01:00,VALID,918.862,VALID,0,VALID,99.929,VALID,0.0169808,VALID,17.9008,VALID,106,VALID,0.760045,
2003-05-24, 00:02:00,VALID,918.853,VALID,0,VALID,99.9278,VALID,0.0339617,VALID,17.8982,VALID,141,VALID,0.50601,
2003-05-24, 00:03:00,VALID,918.853,VALID,0,VALID,99.9278,VALID,0.0169808,VALID,17.8846,VALID,103,VALID,0.6375,
2003-05-24, 00:04:00,VALID,918.87,VALID,0,VALID,99.9062,VALID,0.0509425,VALID,17.8556,VALID,105,VALID,1.16026,
2003-05-24, 00:05:00,VALID,918.854,VALID,0,VALID,99.91,VALID,0.0339617,VALID,17.8424,VALID,102,VALID,0.872677,
2003-05-24, 00:06:00,VALID,918.868,VALID,0,VALID,99.9176,VALID,0.0339617,VALID,17.8399,VALID,107,VALID,0.743666,
2003-05-24, 00:07:00,VALID,918.864,VALID,0,VALID,99.9151,VALID,0.0509425,VALID,17.8106,VALID,108,VALID,0.720759,
2003-05-24, 00:08:00,VALID,918.855,VALID,0,VALID,99.9278,VALID,0.0169808,VALID,17.8076,VALID,124,VALID,0.797768,
2003-05-24, 00:09:00,VALID,918.837,VALID,0,VALID,99.9189,VALID,0.0169808,VALID,17.7882,VALID,104,VALID,0.777344,
2003-05-24, 00:10:00,VALID,918.817,VALID,0,VALID,99.9354,VALID,0.0339617,VALID,17.7718,VALID,106,VALID,1.27083,
2003-05-24, 00:11:00,VALID,918.805,VALID,0,VALID,99.9392,VALID,0.0509425,VALID,17.7686,VALID,106,VALID,0.976563,
2003-05-24, 00:12:00,VALID,918.787,VALID,0,VALID,99.9545,VALID,-0.0169808,VALID,17.7755,VALID,102,VALID,0.795573,
2003-05-24, 00:13:00,VALID,918.787,VALID,0,VALID,99.9519,VALID,0.0169808,VALID,17.7621,VALID,112,VALID,0.928632,
2003-05-24, 00:14:00,VALID,918.779,VALID,0,VALID,99.9634,VALID,0.0339617,VALID,17.746,VALID,108,VALID,0.851563,
2003-05-24, 00:15:00,VALID,918.786,VALID,0,VALID,99.9507,VALID,0.0169808,VALID,17.7268,VALID,105,VALID,0.803571,
2003-05-24, 00:16:00,VALID,918.785,VALID,0,VALID,99.9303,VALID,0.0169808,VALID,17.6943,VALID,106,VALID,0.76912,
2003-05-24, 00:17:00,VALID,918.8,VALID,0,VALID,99.9265,VALID,0,VALID,17.659,VALID,119,VALID,0.663194,
2003-05-24, 00:18:00,VALID,918.796,VALID,0,VALID,99.9341,VALID,0.0169808,VALID,17.6398,VALID,107,VALID,0.789474,
2003-05-24, 00:19:00,VALID,918.793,VALID,0,VALID,99.9758,VALID,0.0339617,VALID,17.6491,VALID,98,VALID,0.582348,
2003-05-24, 00:20:00,VALID,918.767,VALID,0,VALID,99.9837,VALID,0.0339617,VALID,17.656,VALID,105,VALID,0.773438,
2003-05-24, 00:21:00,VALID,918.754,VALID,0,VALID,99.998,VALID,0,VALID,17.6555,VALID,111,VALID,0.84933,
2003-05-24, 00:22:00,VALID,918.748,VALID,0,VALID,99.999,VALID,-0.0169808,VALID,17.6553,VALID,106,VALID,0.602009,
2003-05-24, 00:23:00,VALID,918.74,VALID,0,VALID,99.9967,VALID,0.0339617,VALID,17.6486,VALID,112,VALID,0.58162,
2003-05-24, 00:24:00,VALID,918.743,VALID,0,VALID,99.998,VALID,0,VALID,17.6359,VALID,114,VALID,0.703125,
2003-05-24, 00:25:00,VALID,918.748,VALID,0,VALID,100,VALID,0,VALID,17.6267,VALID,106,VALID,0.73602,
2003-05-24, 00:26:00,VALID,918.764,VALID,0,VALID,99.9931,VALID,0,VALID,17.5944,VALID,111,VALID,0.789063,
2003-05-24, 00:27:00,VALID,918.769,VALID,0,VALID,99.9921,VALID,-0.0169808,VALID,17.5623,VALID,86,VALID,0.917441,
2003-05-24, 00:28:00,VALID,918.777,VALID,0,VALID,99.999,VALID,0.0169808,VALID,17.5688,VALID,69,VALID,1.0183,
2003-05-24, 00:29:00,VALID,918.78,VALID,0,VALID,99.9896,VALID,-0.0169808,VALID,17.5524,VALID,91,VALID,0.991295,
2003-05-24, 00:30:00,VALID,918.782,VALID,0,VALID,100,VALID,0,VALID,17.5526,VALID,97,VALID,0.982319,
2003-05-24, 00:31:00,VALID,918.786,VALID,0,VALID,99.999,VALID,0,VALID,17.5557,VALID,88,VALID,0.870226,
2003-05-24, 00:32:00,VALID,918.778,VALID,0,VALID,99.9954,VALID,-0.0169808,VALID,17.5432,VALID,105,VALID,0.875,
2003-05-24, 00:33:00,VALID,918.773,VALID,0,VALID,99.9858,VALID,0,VALID,17.5236,VALID,100,VALID,0.924409,
2003-05-24, 00:34:00,VALID,918.796,VALID,0,VALID,99.9809,VALID,0.0169808,VALID,17.4971,VALID,89,VALID,0.893581,
2003-05-24, 00:35:00,VALID,918.8,VALID,0,VALID,99.9697,VALID,0.0169808,VALID,17.4784,VALID,93,VALID,0.879911,
2003-05-24, 00:36:00,VALID,918.815,VALID,0,VALID,99.9659,VALID,-0.0169808,VALID,17.4521,VALID,82,VALID,0.915402,
2003-05-24, 00:37:00,VALID,918.817,VALID,0,VALID,99.9647,VALID,0,VALID,17.4424,VALID,84,VALID,0.820313,
2003-05-24, 00:38:00,VALID,918.823,VALID,0,VALID,99.9659,VALID,0.0339617,VALID,17.4325,VALID,83,VALID,0.661675,
2003-05-24, 00:39:00,VALID,918.817,VALID,0,VALID,99.9481,VALID,0,VALID,17.4232,VALID,104,VALID,0.799342,
2003-05-24, 00:40:00,VALID,918.828,VALID,0,VALID,99.9557,VALID,0,VALID,17.4301,VALID,128,VALID,0.845017,
2003-05-24, 00:41:00,VALID,918.817,VALID,0,VALID,99.9545,VALID,0.0339617,VALID,17.4207,VALID,124,VALID,0.562711,
2003-05-24, 00:42:00,VALID,918.789,VALID,0,VALID,99.9494,VALID,-0.0169808,VALID,17.4075,VALID,130,VALID,0.80625,
2003-05-24, 00:43:00,VALID,918.341,VALID,0,VALID,99.9545,VALID,0,VALID,17.4041,VALID,135,VALID,0.972545,
2003-05-24, 00:44:00,VALID,918.738,VALID,0,VALID,99.9608,VALID,0.0169808,VALID,17.4041,VALID,135,VALID,0.462582,
2003-05-24, 00:45:00,VALID,918.707,VALID,0,VALID,99.9481,VALID,0.0169808,VALID,17.3979,VALID,102,VALID,0.911024,
2003-05-24, 00:46:00,VALID,918.689,VALID,0,VALID,99.9341,VALID,0,VALID,17.3623,VALID,101,VALID,0.898438,
2003-05-24, 00:47:00,VALID,918.678,VALID,0,VALID,99.9265,VALID,0.0169808,VALID,17.3425,VALID,90,VALID,0.70397,
2003-05-24, 00:48:00,VALID,918.663,VALID,0,VALID,99.9303,VALID,0,VALID,17.3363,VALID,124,VALID,0.995566,
2003-05-24, 00:49:00,VALID,918.643,VALID,0,VALID,99.9418,VALID,0,VALID,17.3526,VALID,115,VALID,0.909375,
2003-05-24, 00:50:00,VALID,918.632,VALID,0,VALID,99.9367,VALID,0,VALID,17.3591,VALID,107,VALID,0.422545,
2003-05-24, 00:51:00,VALID,918.608,VALID,0,VALID,99.9379,VALID,0.0169808,VALID,17.3522,VALID,106,VALID,0.933799,
2003-05-24, 00:52:00,VALID,918.591,VALID,0,VALID,99.9265,VALID,0.0339617,VALID,17.3589,VALID,94,VALID,0.721571,
2003-05-24, 00:53:00,VALID,918.563,VALID,0,VALID,99.9036,VALID,0.0339617,VALID,17.3524,VALID,94,VALID,0.676809,
2003-05-24, 00:54:00,VALID,918.557,VALID,0,VALID,99.8349,VALID,0,VALID,17.3427,VALID,92,VALID,0.797086,
2003-05-24, 00:55:00,VALID,918.55,VALID,0,VALID,99.7637,VALID,0.0169808,VALID,17.3171,VALID,85,VALID,0.571579,
2003-05-24, 00:56:00,VALID,918.544,VALID,0,VALID,99.7014,VALID,0,VALID,17.2848,VALID,82,VALID,0.43192,
2003-05-24, 00:57:00,VALID,918.533,VALID,0,VALID,99.6722,VALID,0.0339617,VALID,17.2758,VALID,99,VALID,0.495982,
2003-05-24, 00:58:00,VALID,918.52,VALID,0,VALID,99.6595,VALID,-0.0169808,VALID,17.2523,VALID,91,VALID,0.620888,
2003-05-24, 00:59:00,VALID,918.501,VALID,0,VALID,99.7002,VALID,0,VALID,17.2657,VALID,77,VALID,0.875868,
2003-05-24, 01:00:00,VALID,918.481,VALID,0,VALID,99.6798,VALID,0,VALID,17.2814,VALID,94,VALID,1.12973,
2003-05-24, 01:01:00,VALID,918.465,VALID,0,VALID,99.6353,VALID,-0.0169808,VALID,17.3079,VALID,100,VALID,1.07454,
2003-05-24, 01:02:00,VALID,918.459,VALID,0,VALID,99.5514,VALID,0.0169808,VALID,17.3074,VALID,97,VALID,1.05173,
2003-05-24, 01:03:00,VALID,918.448,VALID,0,VALID,99.4547,VALID,0,VALID,17.3206,VALID,91,VALID,0.968304,
2003-05-24, 01:04:00,VALID,918.453,VALID,0,VALID,99.2971,VALID,0,VALID,17.3107,VALID,95,VALID,0.987277,
2003-05-24, 01:05:00,VALID,918.451,VALID,0,VALID,99.1165,VALID,0,VALID,17.301,VALID,109,VALID,1.2572,
2003-05-24, 01:06:00,VALID,918.44,VALID,0,VALID,98.7986,VALID,0.0339617,VALID,17.3109,VALID,84,VALID,0.97309,
2003-05-24, 01:07:00,VALID,918.428,VALID,0,VALID,98.5443,VALID,0.0169808,VALID,17.3141,VALID,106,VALID,1.13651,
2003-05-24, 01:08:00,VALID,918.405,VALID,0,VALID,98.2823,VALID,0,VALID,17.3203,VALID,108,VALID,0.906461,
2003-05-24, 01:09:00,VALID,918.379,VALID,0,VALID,98.0369,VALID,0.0169808,VALID,17.3337,VALID,112,VALID,0.884713,
2003-05-24, 01:10:00,VALID,918.386,VALID,0,VALID,97.8233,VALID,0,VALID,17.3395,VALID,96,VALID,0.827455,
2003-05-24, 01:11:00,VALID,918.37,VALID,0,VALID,97.6122,VALID,0,VALID,17.3272,VALID,78,VALID,0.845759,
2003-05-24, 01:12:00,VALID,918.361,VALID,0,VALID,97.5829,VALID,-0.0169808,VALID,17.3143,VALID,73,VALID,1.18688,
2003-05-24, 01:13:00,VALID,918.346,VALID,0,VALID,97.5448,VALID,-0.0169808,VALID,17.285,VALID,84,VALID,1.15234,
2003-05-24, 01:14:00,VALID,918.332,VALID,0,VALID,97.9072,VALID,0,VALID,17.2952,VALID,86,VALID,1.26295,
2003-05-24, 01:15:00,VALID,918.325,VALID,0,VALID,98.1106,VALID,0,VALID,17.2822,VALID,97,VALID,1.16976,
2003-05-24, 01:16:00,VALID,918.319,VALID,0,VALID,98.2124,VALID,0,VALID,17.2497,VALID,90,VALID,1.10135,
2003-05-24, 01:17:00,VALID,918.301,VALID,0,VALID,98.2543,VALID,0.0169808,VALID,17.2267,VALID,85,VALID,1.09018,
2003-05-24, 01:18:00,VALID,918.268,VALID,0,VALID,98.2111,VALID,0,VALID,17.1948,VALID,79,VALID,1.19911,
2003-05-24, 01:19:00,VALID,918.237,VALID,0,VALID,98.0191,VALID,0,VALID,17.1593,VALID,80,VALID,1.18606,
2003-05-24, 01:20:00,VALID,918.21,VALID,0,VALID,97.7012,VALID,0,VALID,17.124,VALID,85,VALID,1.04167,
2003-05-24, 01:21:00,VALID,918.174,VALID,0,VALID,97.555,VALID,0,VALID,17.0945,VALID,83,VALID,0.936061,
2003-05-24, 01:22:00,VALID,918.178,VALID,0,VALID,97.5995,VALID,-0.0169808,VALID,17.0947,VALID,96,VALID,1.09861,
2003-05-24, 01:23:00,VALID,918.184,VALID,0,VALID,97.602,VALID,0,VALID,17.1141,VALID,101,VALID,1.19637,
2003-05-24, 01:24:00,VALID,918.181,VALID,0,VALID,97.5219,VALID,0,VALID,17.1591,VALID,100,VALID,1.20804,
2003-05-24, 01:25:00,VALID,918.195,VALID,0,VALID,97.2777,VALID,0,VALID,17.1879,VALID,100,VALID,1.15045,
2003-05-24, 01:26:00,VALID,918.201,VALID,0,VALID,96.9344,VALID,0,VALID,17.211,VALID,93,VALID,0.949836,
2003-05-24, 01:27:00,VALID,918.206,VALID,0,VALID,96.7882,VALID,0.0169808,VALID,17.211,VALID,91,VALID,1.16688,
2003-05-24, 01:28:00,VALID,918.207,VALID,0,VALID,96.4894,VALID,0,VALID,17.1789,VALID,92,VALID,1.07874,
2003-05-24, 01:29:00,VALID,918.194,VALID,0,VALID,96.82,VALID,-0.0169808,VALID,17.1365,VALID,100,VALID,1.24768,
2003-05-24, 01:30:00,VALID,918.188,VALID,0,VALID,97.0997,VALID,0,VALID,17.1268,VALID,101,VALID,1.23374,
2003-05-24, 01:31:00,VALID,918.166,VALID,0,VALID,97.2383,VALID,-0.0339617,VALID,17.1111,VALID,94,VALID,1.2875,
2003-05-24, 01:32:00,VALID,918.139,VALID,0,VALID,97.5346,VALID,-0.0169808,VALID,17.1014,VALID,102,VALID,1.31339,
2003-05-24, 01:33:00,VALID,918.119,VALID,0,VALID,97.5689,VALID,0,VALID,17.0855,VALID,97,VALID,1.1949,
2003-05-24, 01:34:00,VALID,918.107,VALID,0,VALID,97.6185,VALID,0.0169808,VALID,17.0398,VALID,91,VALID,1.16298,
2003-05-24, 01:35:00,VALID,918.1,VALID,0,VALID,97.6847,VALID,-0.0169808,VALID,17.0041,VALID,89,VALID,1.24054,
2003-05-24, 01:36:00,VALID,918.086,VALID,0,VALID,97.6287,VALID,0,VALID,16.9692,VALID,92,VALID,1.09945,
2003-05-24, 01:37:00,VALID,918.075,VALID,0,VALID,97.761,VALID,0,VALID,16.9363,VALID,98,VALID,1.1685,
2003-05-24, 01:38:00,VALID,918.066,VALID,0,VALID,97.7737,VALID,0,VALID,16.9303,VALID,103,VALID,1.19554,
2003-05-24, 01:39:00,VALID,918.065,VALID,0,VALID,97.7699,VALID,0,VALID,16.9266,VALID,108,VALID,1.16897,
2003-05-24, 01:40:00,VALID,918.059,VALID,0,VALID,97.8042,VALID,0,VALID,16.9367,VALID,103,VALID,1.18565,
2003-05-24, 01:41:00,VALID,918.064,VALID,0,VALID,97.9275,VALID,0,VALID,16.9494,VALID,100,VALID,1.41319,
2003-05-24, 01:42:00,VALID,918.059,VALID,0,VALID,97.5308,VALID,-0.0169808,VALID,16.9628,VALID,90,VALID,1.066,
2003-05-24, 01:43:00,VALID,918.038,VALID,0,VALID,97.3464,VALID,-0.0169808,VALID,16.9501,VALID,92,VALID,1.16681,
2003-05-24, 01:44:00,VALID,918.024,VALID,0,VALID,97.3706,VALID,0,VALID,16.9397,VALID,86,VALID,1.13387,
2003-05-24, 01:45:00,VALID,918.002,VALID,0,VALID,97.2803,VALID,0,VALID,16.9268,VALID,83,VALID,1.28482,
2003-05-24, 01:46:00,VALID,917.987,VALID,0,VALID,97.3591,VALID,0,VALID,16.9139,VALID,86,VALID,1.25312,
2003-05-24, 01:47:00,VALID,917.963,VALID,0,VALID,97.2765,VALID,0,VALID,16.9115,VALID,87,VALID,1.28516,
2003-05-24, 01:48:00,VALID,917.979,VALID,0,VALID,97.204,VALID,-0.0169808,VALID,16.8917,VALID,88,VALID,1.39627,
2003-05-24, 01:49:00,VALID,917.979,VALID,0,VALID,97.0336,VALID,-0.0169808,VALID,16.8592,VALID,90,VALID,1.27048,
2003-05-24, 01:50:00,VALID,917.964,VALID,0,VALID,96.9738,VALID,-0.0679233,VALID,16.8625,VALID,96,VALID,0.956715,
2003-05-24, 01:51:00,VALID,917.964,VALID,0,VALID,96.998,VALID,0,VALID,16.8724,VALID,102,VALID,0.91723,
2003-05-24, 01:52:00,VALID,917.958,VALID,0,VALID,96.8823,VALID,-0.0339617,VALID,16.8887,VALID,94,VALID,1.06473,
2003-05-24, 01:53:00,VALID,917.931,VALID,0,VALID,96.6801,VALID,-0.0339617,VALID,16.8984,VALID,91,VALID,1.31429,
2003-05-24, 01:54:00,VALID,917.918,VALID,0,VALID,96.497,VALID,-0.0509425,VALID,16.8919,VALID,88,VALID,1.49157,
2003-05-24, 01:55:00,VALID,917.901,VALID,0,VALID,96.3393,VALID,0,VALID,16.918,VALID,91,VALID,1.4885,
2003-05-24, 01:56:00,VALID,917.893,VALID,0,VALID,96.1384,VALID,0,VALID,16.9533,VALID,98,VALID,1.19881,
2003-05-24, 01:57:00,VALID,917.88,VALID,0,VALID,95.8332,VALID,-0.0339617,VALID,16.9761,VALID,93,VALID,1.17589,
2003-05-24, 01:58:00,VALID,917.869,VALID,0,VALID,95.5458,VALID,0,VALID,16.9951,VALID,103,VALID,1.27069,
2003-05-24, 01:59:00,VALID,917.856,VALID,0,VALID,95.3068,VALID,-0.0169808,VALID,17.0241,VALID,117,VALID,1.43839,
2003-05-24, 02:00:00,VALID,917.843,VALID,0,VALID,95.0741,VALID,-0.0169808,VALID,17.0405,VALID,116,VALID,1.49777,
2003-05-24, 02:01:00,VALID,917.85,VALID,0,VALID,94.9876,VALID,0.0169808,VALID,17.0467,VALID,104,VALID,1.14782,
2003-05-24, 02:02:00,VALID,917.83,VALID,0,VALID,94.8935,VALID,-0.0169808,VALID,17.079,VALID,101,VALID,1.24457,
2003-05-24, 02:03:00,VALID,917.807,VALID,0,VALID,94.6468,VALID,-0.0169808,VALID,17.1212,VALID,96,VALID,0.952919,
2003-05-24, 02:04:00,VALID,917.794,VALID,0,VALID,94.5565,VALID,-0.0339617,VALID,17.1309,VALID,105,VALID,1.13788,
2003-05-24, 02:05:00,VALID,917.79,VALID,0,VALID,94.5781,VALID,-0.0509425,VALID,17.1018,VALID,109,VALID,1.26056,
2003-05-24, 02:06:00,VALID,917.785,VALID,0,VALID,94.6849,VALID,-0.0169808,VALID,17.0695,VALID,118,VALID,1.12031,
2003-05-24, 02:07:00,VALID,917.777,VALID,0,VALID,94.8121,VALID,-0.0169808,VALID,17.0146,VALID,114,VALID,1.18795,
2003-05-24, 02:08:00,VALID,917.77,VALID,0,VALID,95.0664,VALID,-0.0169808,VALID,17.0179,VALID,114,VALID,1.41571,
2003-05-24, 02:09:00,VALID,917.784,VALID,0,VALID,95.1605,VALID,0,VALID,17.0211,VALID,111,VALID,1.28472,
2003-05-24, 02:10:00,VALID,917.777,VALID,0,VALID,95.233,VALID,-0.0169808,VALID,17.0052,VALID,115,VALID,1.22965,
2003-05-24, 02:11:00,VALID,917.771,VALID,0,VALID,95.3373,VALID,-0.0509425,VALID,16.9824,VALID,110,VALID,1.45249,
2003-05-24, 02:12:00,VALID,917.763,VALID,0,VALID,95.2546,VALID,-0.0339617,VALID,16.9888,VALID,102,VALID,1.16322,
2003-05-24, 02:13:00,VALID,917.753,VALID,0,VALID,95.1898,VALID,-0.0509425,VALID,16.992,VALID,100,VALID,1.15268,
2003-05-24, 02:14:00,VALID,917.762,VALID,0,VALID,95.2673,VALID,-0.0169808,VALID,16.9951,VALID,100,VALID,1.28103,
2003-05-24, 02:15:00,VALID,917.762,VALID,0,VALID,94.9189,VALID,-0.0339617,VALID,16.9828,VALID,85,VALID,1.08059,
2003-05-24, 02:16:00,VALID,917.767,VALID,0,VALID,94.7536,VALID,-0.0339617,VALID,16.918,VALID,88,VALID,1.18793,
2003-05-24, 02:17:00,VALID,917.785,VALID,0,VALID,95.2406,VALID,-0.0169808,VALID,16.8659,VALID,91,VALID,1.51727,
2003-05-24, 02:18:00,VALID,917.781,VALID,0,VALID,95.4581,VALID,-0.0679233,VALID,16.873,VALID,97,VALID,1.30236,
2003-05-24, 02:19:00,VALID,917.79,VALID,0,VALID,95.2775,VALID,-0.0169808,VALID,16.8855,VALID,93,VALID,1.15519,
2003-05-24, 02:20:00,VALID,917.79,VALID,0,VALID,95.2902,VALID,-0.0169808,VALID,16.9083,VALID,93,VALID,1.33906,
2003-05-24, 02:21:00,VALID,917.799,VALID,0,VALID,95.2267,VALID,-0.0339617,VALID,16.9212,VALID,101,VALID,1.37388,
2003-05-24, 02:22:00,VALID,917.784,VALID,0,VALID,95.083,VALID,-0.0339617,VALID,16.9436,VALID,103,VALID,1.43647,
2003-05-24, 02:23:00,VALID,917.783,VALID,0,VALID,94.9304,VALID,-0.0339617,VALID,16.9918,VALID,99,VALID,1.59852,
2003-05-24, 02:24:00,VALID,917.783,VALID,0,VALID,94.6735,VALID,-0.0169808,VALID,17.0441,VALID,93,VALID,1.3898,
2003-05-24, 02:25:00,VALID,917.781,VALID,0,VALID,94.3683,VALID,-0.0509425,VALID,17.07,VALID,81,VALID,1.13936,
2003-05-24, 02:26:00,VALID,917.779,VALID,0,VALID,94.3327,VALID,-0.0169808,VALID,17.0833,VALID,89,VALID,1.30617,
2003-05-24, 02:27:00,VALID,917.764,VALID,0,VALID,94.0682,VALID,-0.0509425,VALID,17.096,VALID,93,VALID,1.24955,
2003-05-24, 02:28:00,VALID,917.766,VALID,0,VALID,93.9474,VALID,-0.0509425,VALID,17.0988,VALID,109,VALID,1.10893,
2003-05-24, 02:29:00,VALID,917.768,VALID,0,VALID,93.5888,VALID,-0.0169808,VALID,17.1117,VALID,124,VALID,0.930921,
2003-05-24, 02:30:00,VALID,917.788,VALID,0,VALID,93.5507,VALID,0,VALID,17.1408,VALID,108,VALID,1.1543,
2003-05-24, 02:31:00,VALID,917.792,VALID,0,VALID,93.4489,VALID,0,VALID,17.1669,VALID,92,VALID,1.10855,
2003-05-24, 02:32:00,VALID,917.803,VALID,0,VALID,93.3663,VALID,-0.0679233,VALID,17.1535,VALID,89,VALID,1.10346,
2003-05-24, 02:33:00,VALID,917.808,VALID,0,VALID,93.4833,VALID,0,VALID,17.1311,VALID,96,VALID,1.13218,
2003-05-24, 02:34:00,VALID,917.81,VALID,0,VALID,93.5659,VALID,-0.0339617,VALID,17.099,VALID,102,VALID,0.983705,
2003-05-24, 02:35:00,VALID,917.812,VALID,0,VALID,93.744,VALID,-0.0339617,VALID,17.0601,VALID,104,VALID,1.1346,
2003-05-24, 02:36:00,VALID,917.818,VALID,0,VALID,93.8635,VALID,-0.0339617,VALID,17.0375,VALID,111,VALID,1.09128,
2003-05-24, 02:37:00,VALID,917.817,VALID,0,VALID,93.8838,VALID,0,VALID,17.0084,VALID,114,VALID,0.987847,
2003-05-24, 02:38:00,VALID,917.833,VALID,0,VALID,94.058,VALID,-0.0169808,VALID,16.9662,VALID,115,VALID,1.00082,
2003-05-24, 02:39:00,VALID,917.835,VALID,0,VALID,94.5247,VALID,-0.0169808,VALID,16.9309,VALID,112,VALID,1.18898,
2003-05-24, 02:40:00,VALID,917.825,VALID,0,VALID,94.7333,VALID,-0.0169808,VALID,16.8952,VALID,102,VALID,1.12247,
2003-05-24, 02:41:00,VALID,917.815,VALID,0,VALID,94.9622,VALID,-0.0169808,VALID,16.8661,VALID,114,VALID,1.3029,
2003-05-24, 02:42:00,VALID,917.807,VALID,0,VALID,95.2139,VALID,-0.0679233,VALID,16.8566,VALID,101,VALID,1.2346,
2003-05-24, 02:43:00,VALID,917.79,VALID,0,VALID,95.1516,VALID,-0.101885,VALID,16.873,VALID,112,VALID,1.11945,
2003-05-24, 02:44:00,VALID,917.786,VALID,0,VALID,95.1173,VALID,0,VALID,16.876,VALID,131,VALID,0.863715,
2003-05-24, 02:45:00,VALID,917.793,VALID,0,VALID,95.0728,VALID,-0.0169808,VALID,16.87,VALID,126,VALID,0.960321,
2003-05-24, 02:46:00,VALID,917.792,VALID,0,VALID,95.275,VALID,-0.0509425,VALID,16.8571,VALID,131,VALID,0.99641,
2003-05-24, 02:47:00,VALID,917.789,VALID,0,VALID,95.3678,VALID,-0.0509425,VALID,16.8278,VALID,131,VALID,0.865498,
2003-05-24, 02:48:00,VALID,917.789,VALID,0,VALID,95.5128,VALID,-0.0679233,VALID,16.7953,VALID,121,VALID,1.02567,
2003-05-24, 02:49:00,VALID,917.782,VALID,0,VALID,95.5573,VALID,-0.0509425,VALID,16.7567,VALID,119,VALID,0.822545,
2003-05-24, 02:50:00,VALID,917.796,VALID,0,VALID,95.7404,VALID,-0.0679233,VALID,16.7311,VALID,115,VALID,0.978824,
2003-05-24, 02:51:00,VALID,917.805,VALID,0,VALID,95.9095,VALID,-0.0679233,VALID,16.6919,VALID,115,VALID,1.14714,
2003-05-24, 02:52:00,VALID,917.805,VALID,0,VALID,95.9438,VALID,0,VALID,16.6696,VALID,106,VALID,0.915913,
2003-05-24, 02:53:00,VALID,917.811,VALID,0,VALID,95.9871,VALID,-0.0849042,VALID,16.631,VALID,102,VALID,1.07897,
2003-05-24, 02:54:00,VALID,917.807,VALID,0,VALID,95.8472,VALID,-0.0679233,VALID,16.6084,VALID,93,VALID,0.956926,
2003-05-24, 02:55:00,VALID,917.803,VALID,0,VALID,95.982,VALID,-0.0339617,VALID,16.5985,VALID,92,VALID,0.972991,
2003-05-24, 02:56:00,VALID,917.784,VALID,0,VALID,95.9947,VALID,-0.0679233,VALID,16.5824,VALID,98,VALID,1.20982,
2003-05-24, 02:57:00,VALID,917.775,VALID,0,VALID,95.9375,VALID,-0.0679233,VALID,16.6215,VALID,105,VALID,1.31661,
2003-05-24, 02:58:00,VALID,917.767,VALID,0,VALID,95.6119,VALID,-0.0679233,VALID,16.6732,VALID,109,VALID,1.28472,
2003-05-24, 02:59:00,VALID,917.781,VALID,0,VALID,95.2902,VALID,-0.0339617,VALID,16.6988,VALID,103,VALID,1.12068,
2003-05-24, 03:00:00,VALID,917.779,VALID,0,VALID,95.1682,VALID,-0.0339617,VALID,16.7016,VALID,101,VALID,1.14358,
2003-05-24, 03:01:00,VALID,917.786,VALID,0,VALID,94.9062,VALID,-0.101885,VALID,16.732,VALID,110,VALID,0.764147,
2003-05-24, 03:02:00,VALID,917.786,VALID,0,VALID,95.0385,VALID,-0.0849042,VALID,16.7113,VALID,109,VALID,0.777455,
2003-05-24, 03:03:00,VALID,917.804,VALID,0,VALID,95.2762,VALID,-0.0509425,VALID,16.7053,VALID,118,VALID,0.912277,
2003-05-24, 03:04:00,VALID,917.803,VALID,0,VALID,95.3818,VALID,-0.0849042,VALID,16.6891,VALID,124,VALID,1.00761,
2003-05-24, 03:05:00,VALID,917.81,VALID,0,VALID,95.4517,VALID,-0.0849042,VALID,16.6571,VALID,120,VALID,0.554253,
2003-05-24, 03:06:00,VALID,917.818,VALID,0,VALID,95.7493,VALID,-0.0169808,VALID,16.6018,VALID,115,VALID,0.543791,
2003-05-24, 03:07:00,VALID,917.822,VALID,0,VALID,95.907,VALID,-0.0509425,VALID,16.5662,VALID,97,VALID,0.691301,
2003-05-24, 03:08:00,VALID,917.82,VALID,0,VALID,96.0049,VALID,-0.0509425,VALID,16.541,VALID,102,VALID,0.798564,
2003-05-24, 03:09:00,VALID,917.825,VALID,0,VALID,96.0824,VALID,-0.0679233,VALID,16.5176,VALID,101,VALID,0.773214,
2003-05-24, 03:10:00,VALID,917.836,VALID,0,VALID,96.221,VALID,-0.0679233,VALID,16.5083,VALID,111,VALID,0.704687,
2003-05-24, 03:11:00,VALID,917.828,VALID,0,VALID,96.3291,VALID,0,VALID,16.5073,VALID,104,VALID,0.68051,
2003-05-24, 03:12:00,VALID,917.823,VALID,0,VALID,96.3304,VALID,0.0339617,VALID,16.5008,VALID,110,VALID,0.544705,
2003-05-24, 03:13:00,VALID,917.814,VALID,0,VALID,96.3533,VALID,0.0169808,VALID,16.5075,VALID,111,VALID,0.646176,
2003-05-24, 03:14:00,VALID,917.806,VALID,0,VALID,96.3177,VALID,0.0169808,VALID,16.4972,VALID,114,VALID,0.959248,
2003-05-24, 03:15:00,VALID,917.808,VALID,0,VALID,96.2287,VALID,0.0339617,VALID,16.5142,VALID,114,VALID,0.949958,
2003-05-24, 03:16:00,VALID,917.813,VALID,0,VALID,96.0519,VALID,0.0169808,VALID,16.52,VALID,105,VALID,0.86808,
2003-05-24, 03:17:00,VALID,917.822,VALID,0,VALID,95.8319,VALID,0.0509425,VALID,16.5168,VALID,92,VALID,0.946205,
2003-05-24, 03:18:00,VALID,917.833,VALID,0,VALID,95.4733,VALID,0.0679233,VALID,16.5036,VALID,78,VALID,1.13507,
2003-05-24, 03:19:00,VALID,917.838,VALID,0,VALID,95.5217,VALID,0.0339617,VALID,16.4716,VALID,78,VALID,1.26714,
2003-05-24, 03:20:00,VALID,917.85,VALID,0,VALID,95.5789,VALID,0.0509425,VALID,16.4625,VALID,85,VALID,1.34149,
2003-05-24, 03:21:00,VALID,917.844,VALID,0,VALID,95.5407,VALID,0.0169808,VALID,16.4399,VALID,78,VALID,1.31672,
2003-05-24, 03:22:00,VALID,917.84,VALID,0,VALID,95.5738,VALID,0.0169808,VALID,16.404,VALID,89,VALID,1.40097,
2003-05-24, 03:23:00,VALID,917.83,VALID,0,VALID,95.8307,VALID,0.0849042,VALID,16.3682,VALID,90,VALID,1.31964,
2003-05-24, 03:24:00,VALID,917.831,VALID,0,VALID,95.6908,VALID,0,VALID,16.359,VALID,87,VALID,1.16027,
2003-05-24, 03:25:00,VALID,917.832,VALID,0,VALID,95.8612,VALID,0.0509425,VALID,16.32,VALID,87,VALID,1.24116,
2003-05-24, 03:26:00,VALID,917.83,VALID,0,VALID,96.071,VALID,-0.0679233,VALID,16.3213,VALID,89,VALID,1.09484,
2003-05-24, 03:27:00,VALID,917.822,VALID,0,VALID,96.0265,VALID,-0.0509425,VALID,16.3342,VALID,97,VALID,1.02508,
2003-05-24, 03:28:00,VALID,917.821,VALID,0,VALID,95.7493,VALID,-0.0849042,VALID,16.3832,VALID,96,VALID,0.968328,
2003-05-24, 03:29:00,VALID,917.835,VALID,0,VALID,95.364,VALID,-0.0679233,VALID,16.4026,VALID,101,VALID,0.775549,
2003-05-24, 03:30:00,VALID,917.839,VALID,0,VALID,95.1631,VALID,-0.0679233,VALID,16.3794,VALID,89,VALID,0.910268,
2003-05-24, 03:31:00,VALID,917.85,VALID,0,VALID,94.9914,VALID,-0.0679233,VALID,16.3828,VALID,94,VALID,0.926339,
2003-05-24, 03:32:00,VALID,917.842,VALID,0,VALID,95.0613,VALID,-0.0169808,VALID,16.3895,VALID,92,VALID,0.945107,
2003-05-24, 03:33:00,VALID,917.853,VALID,0,VALID,94.952,VALID,-0.0849042,VALID,16.4024,VALID,94,VALID,0.831163,
2003-05-24, 03:34:00,VALID,917.864,VALID,0,VALID,94.835,VALID,-0.0509425,VALID,16.4123,VALID,92,VALID,0.916118,
2003-05-24, 03:35:00,VALID,917.878,VALID,0,VALID,94.6087,VALID,-0.0679233,VALID,16.399,VALID,81,VALID,0.767736,
2003-05-24, 03:36:00,VALID,917.888,VALID,0,VALID,94.4739,VALID,-0.0849042,VALID,16.3735,VALID,89,VALID,0.558488,